Location: Unspecified
(0.0000°N, 0.0000°E)
Time: 02:49:28
(UTC+01:00)

Ariane H10-3 - Visible Passes

Search period start: 26 October 2014 00:00
Search period end: 04 November 2014 23:00
Orbit: 220 x 22319 km, 7.1° (Epoch: 25 October)

Date Brightness Start Highest point End Pass type
(mag) Time Alt. Az. Time Alt. Az. Time Alt. Az.
26 Oct 6.8 14:27:05 10° W 19:31:17 77° N 19:48:12 18° E visible
27 Oct 5.8 17:47:10 10° W 21:41:54 78° N 21:41:59 78° N visible
28 Oct 4.7 04:34:39 34° SSE 04:34:39 34° SSE 04:42:30 10° ESE visible
28 Oct 7.4 23:27:58 10° W 23:34:57 20° W 23:34:57 20° W visible
30 Oct 6.0 15:57:41 10° W 20:44:44 78° N 20:50:35 48° ENE visible
31 Oct 6.4 03:42:29 10° ESE 03:42:29 10° ESE 03:42:36 10° ESE visible
31 Oct 6.5 22:11:41 10° W 22:41:12 44° W 22:41:12 44° W visible
01 Nov 5.0 05:32:50 17° WSW 05:36:14 51° SSE 05:58:25 10° E visible
02 Nov 6.7 14:36:05 10° W 19:37:45 79° N 19:52:47 19° E visible
03 Nov 5.7 18:08:58 10° W 21:40:59 83° N 21:41:05 82° NNE visible
04 Nov 4.7 04:31:56 35° SSE 04:31:56 35° SSE 04:40:26 10° E visible
